| time (UTC) | temp C | wind direction | speed KPH | gust KPH | rain 1hr cm | rain 24hr cm | rain mn cm | humidity % | barometer mb |
| 20260502185845 | 16 | 299 | 3.2 | 9.7 | 0.00 | 0.00 | 0.00 | 63 | 1018.2 |
| 20260502185144 | 15 | 297 | 4.8 | 9.7 | 0.00 | 0.00 | 0.00 | 64 | 1018.2 |
| 20260502184443 | 15 | 301 | 4.8 | 11.3 | 0.00 | 0.00 | 0.00 | 61 | 1018.6 |
| 20260502183742 | 15 | 295 | 6.4 | 11.3 | 0.00 | 0.00 | 0.00 | 62 | 1018.7 |
| 20260502183042 | 16 | 292 | 6.4 | 9.7 | 0.00 | 0.00 | 0.00 | 57 | 1018.5 |
| 20260502182340 | 16 | 307 | 3.2 | 8.0 | 0.00 | 0.00 | 0.00 | 51 | 1018.7 |
| 20260502181640 | 16 | 324 | 3.2 | 6.4 | 0.00 | 0.00 | 0.00 | 51 | 1018.8 |
| 20260502180938 | 16 | 300 | 1.6 | 6.4 | 0.00 | 0.00 | 0.00 | 49 | 1018.7 |
| 20260502180237 | 15 | 306 | 1.6 | 8.0 | 0.00 | 0.00 | 0.00 | 46 | 1018.3 |
| 20260502163826 | 13 | 267 | 6.4 | 11.3 | 0.00 | 0.00 | 0.00 | 59 | 1019.3 |
| 20260502163124 | 13 | 266 | 8.0 | 11.3 | 0.00 | 0.00 | 0.00 | 61 | 1019.4 |
| 20260502162423 | 13 | 263 | 6.4 | 11.3 | 0.00 | 0.00 | 0.00 | 60 | 1019.4 |
| 20260502161723 | 13 | 259 | 6.4 | 11.3 | 0.00 | 0.00 | 0.00 | 60 | 1019.4 |
| 20260502161023 | 13 | 255 | 8.0 | 9.7 | 0.00 | 0.00 | 0.00 | 59 | 1019.4 |
| 20260502160320 | 13 | 257 | 8.0 | 9.7 | 0.00 | 0.00 | 0.00 | 59 | 1019.4 |
| 20260502152114 | 12 | 236 | 4.8 | 8.0 | 0.00 | 0.00 | 0.00 | 64 | 1019.4 |
| 20260502151413 | 12 | 246 | 3.2 | 6.4 | 0.00 | 0.00 | 0.00 | 64 | 1019.4 |
| 20260502150712 | 11 | 247 | 3.2 | 6.4 | 0.00 | 0.00 | 0.00 | 64 | 1019.4 |
| 20260502123250 | 8 | 138 | 1.6 | 4.8 | 0.00 | 0.00 | 0.00 | 67 | 1018.7 |
| 20260502122548 | 8 | 0 | 0.0 | 1.6 | 0.00 | 0.00 | 0.00 | 65 | 1018.6 |
| 20260502121848 | 9 | 0 | 0.0 | 1.6 | 0.00 | 0.00 | 0.00 | 65 | 1018.4 |
| 20260502121146 | 9 | 0 | 0.0 | 1.6 | 0.00 | 0.00 | 0.00 | 63 | 1018.4 |
| 20260502120446 | 8 | 0 | 0.0 | 3.2 | 0.00 | 0.00 | 0.00 | 62 | 1018.9 |
| 20260502115744 | 8 | 0 | 0.0 | 3.2 | 0.00 | 0.00 | 0.00 | 59 | 1018.9 |
| 20260502115043 | 8 | 0 | 0.0 | 3.2 | 0.00 | 0.00 | 0.00 | 58 | 1018.7 |
| 20260502114342 | 7 | 193 | 1.6 | 6.4 | 0.00 | 0.00 | 0.00 | 59 | 1018.2 |
| 20260502114009 | 8 | 218 | 3.2 | 9.7 | 0.00 | 0.00 | 0.00 | 60 | 1018.8 |
| 20260502113641 | 8 | 218 | 3.2 | 9.7 | 0.00 | 0.00 | 0.00 | 60 | 1018.8 |
| 20260502112941 | 9 | 230 | 3.2 | 9.7 | 0.00 | 0.00 | 0.00 | 58 | 1018.5 |
| 20260502112239 | 10 | 210 | 3.2 | 8.0 | 0.00 | 0.00 | 0.00 | 55 | 1018.2 |
| 20260502111538 | 10 | 0 | 0.0 | 3.2 | 0.00 | 0.00 | 0.00 | 57 | 1018.0 |
| 20260502110837 | 10 | 0 | 0.0 | 4.8 | 0.00 | 0.00 | 0.00 | 61 | 1017.9 |
| 20260502110136 | 10 | 0 | 0.0 | 3.2 | 0.00 | 0.00 | 0.00 | 62 | 1018.1 |
| 20260502105435 | 10 | 0 | 0.0 | 0.0 | 0.00 | 0.00 | 0.00 | 60 | 1018.1 |
| 20260502104734 | 10 | 0 | 0.0 | 3.2 | 0.00 | 0.00 | 0.00 | 57 | 1018.5 |
| 20260502104033 | 10 | 0 | 0.0 | 1.6 | 0.00 | 0.00 | 0.00 | 58 | 1018.4 |
| 20260502103332 | 10 | 0 | 0.0 | 3.2 | 0.00 | 0.00 | 0.00 | 55 | 1018.5 |
| 20260502102632 | 10 | 0 | 0.0 | 6.4 | 0.00 | 0.00 | 0.00 | 55 | 1018.4 |
| 20260502101229 | 10 | 83 | 1.6 | 4.8 | 0.00 | 0.00 | 0.00 | 62 | 1018.2 |
| 20260502100528 | 10 | 0 | 0.0 | 4.8 | 0.00 | 0.00 | 0.00 | 64 | 1018.2 |
| 20260502090920 | 11 | 234 | 4.8 | 9.7 | 0.00 | 0.00 | 0.00 | 53 | 1017.7 |
| 20260502090220 | 12 | 0 | 0.0 | 4.8 | 0.00 | 0.00 | 0.00 | 56 | 1017.7 |
| 20260502071003 | 11 | 85 | 1.6 | 4.8 | 0.00 | 0.00 | 0.00 | 56 | 1018.2 |
| 20260502070302 | 11 | 0 | 0.0 | 1.6 | 0.00 | 0.00 | 0.00 | 59 | 1018.2 |
| 20260502065601 | 11 | 0 | 0.0 | 3.2 | 0.00 | 0.00 | 0.00 | 52 | 1018.3 |
| 20260502064900 | 11 | 0 | 0.0 | 3.2 | 0.00 | 0.00 | 0.00 | 58 | 1018.2 |
| 20260502064159 | 11 | 0 | 0.0 | 3.2 | 0.00 | 0.00 | 0.00 | 56 | 1018.0 |
| 20260502063458 | 12 | 0 | 0.0 | 4.8 | 0.00 | 0.00 | 0.00 | 50 | 1018.1 |
| 20260502062757 | 12 | 0 | 0.0 | 3.2 | 0.00 | 0.00 | 0.00 | 44 | 1018.1 |
| 20260502062056 | 11 | 0 | 0.0 | 4.8 | 0.00 | 0.00 | 0.00 | 48 | 1018.4 |
| 20260502061355 | 11 | 73 | 1.6 | 4.8 | 0.00 | 0.00 | 0.00 | 57 | 1018.3 |
| 20260502060654 | 11 | 83 | 3.2 | 6.4 | 0.00 | 0.00 | 0.00 | 55 | 1018.3 |
| 20260502055953 | 11 | 63 | 4.8 | 8.0 | 0.00 | 0.00 | 0.00 | 52 | 1018.1 |
| 20260502055252 | 12 | 81 | 3.2 | 6.4 | 0.00 | 0.00 | 0.00 | 52 | 1018.0 |
| 20260502054551 | 12 | 57 | 4.8 | 6.4 | 0.00 | 0.00 | 0.00 | 48 | 1018.1 |
| 20260502053850 | 12 | 0 | 0.0 | 3.2 | 0.00 | 0.00 | 0.00 | 44 | 1018.0 |
| 20260502053149 | 12 | 0 | 0.0 | 6.4 | 0.00 | 0.00 | 0.00 | 47 | 1018.2 |
| 20260502052448 | 13 | 94 | 3.2 | 6.4 | 0.00 | 0.00 | 0.00 | 45 | 1017.9 |
| 20260502051747 | 13 | 0 | 0.0 | 4.8 | 0.00 | 0.00 | 0.00 | 35 | 1017.9 |
| 20260502051046 | 12 | 0 | 0.0 | 4.8 | 0.00 | 0.00 | 0.00 | 38 | 1018.1 |
| 20260502050345 | 12 | 211 | 1.6 | 9.7 | 0.00 | 0.00 | 0.00 | 39 | 1018.2 |
| 20260502045644 | 12 | 217 | 6.4 | 14.5 | 0.00 | 0.00 | 0.00 | 52 | 1018.1 |
| 20260502044943 | 13 | 227 | 6.4 | 14.5 | 0.00 | 0.00 | 0.00 | 50 | 1017.7 |
| 20260502044242 | 13 | 122 | 3.2 | 6.4 | 0.00 | 0.00 | 0.00 | 34 | 1018.1 |
| 20260502043541 | 13 | 122 | 3.2 | 6.4 | 0.00 | 0.00 | 0.00 | 34 | 1018.1 |
| 20260502042840 | 14 | 128 | 1.6 | 6.4 | 0.00 | 0.00 | 0.00 | 32 | 1017.8 |
| 20260502042139 | 14 | 132 | 3.2 | 6.4 | 0.00 | 0.00 | 0.00 | 32 | 1017.8 |
| 20260502041438 | 15 | 0 | 0.0 | 4.8 | 0.00 | 0.00 | 0.00 | 31 | 1017.8 |
| 20260502040737 | 15 | 207 | 3.2 | 8.0 | 0.00 | 0.00 | 0.00 | 31 | 1017.7 |
| 20260502040036 | 15 | 195 | 4.8 | 8.0 | 0.00 | 0.00 | 0.00 | 28 | 1018.3 |
| 20260502035335 | 15 | 191 | 3.2 | 8.0 | 0.00 | 0.00 | 0.00 | 30 | 1017.7 |
| 20260502034634 | 15 | 198 | 4.8 | 8.0 | 0.00 | 0.00 | 0.00 | 30 | 1017.7 |
| 20260502033233 | 15 | 178 | 4.8 | 9.7 | 0.00 | 0.00 | 0.00 | 29 | 1017.5 |
| 20260502031830 | 15 | 187 | 6.4 | 9.7 | 0.00 | 0.00 | 0.00 | 27 | 1017.4 |
| 20260502031129 | 15 | 197 | 4.8 | 9.7 | 0.00 | 0.00 | 0.00 | 28 | 1017.3 |
| 20260502030428 | 15 | 0 | 0.0 | 3.2 | 0.00 | 0.00 | 0.00 | 31 | 1017.1 |
| 20260502025727 | 16 | 0 | 0.0 | 4.8 | 0.00 | 0.00 | 0.00 | 28 | 1017.6 |
| 20260502025025 | 16 | 197 | 1.6 | 4.8 | 0.00 | 0.00 | 0.00 | 27 | 1017.6 |
| 20260502024325 | 16 | 214 | 1.6 | 4.8 | 0.00 | 0.00 | 0.00 | 27 | 1017.0 |
| 20260502023623 | 16 | 245 | 1.6 | 4.8 | 0.00 | 0.00 | 0.00 | 29 | 1016.9 |
| 20260502022924 | 16 | 227 | 3.2 | 4.8 | 0.00 | 0.00 | 0.00 | 29 | 1017.4 |
| 20260502022221 | 16 | 221 | 1.6 | 3.2 | 0.00 | 0.00 | 0.00 | 26 | 1017.4 |
| 20260502021520 | 17 | 0 | 0.0 | 4.8 | 0.00 | 0.00 | 0.00 | 29 | 1017.4 |
| 20260502020819 | 17 | 0 | 0.0 | 6.4 | 0.00 | 0.00 | 0.00 | 27 | 1017.2 |
| 20260502020119 | 17 | 253 | 1.6 | 6.4 | 0.00 | 0.00 | 0.00 | 28 | 1017.3 |
| 20260502015417 | 17 | 249 | 3.2 | 6.4 | 0.00 | 0.00 | 0.00 | 28 | 1017.2 |
| 20260502014718 | 17 | 263 | 3.2 | 6.4 | 0.00 | 0.00 | 0.00 | 28 | 1016.7 |
| 20260502014015 | 17 | 258 | 3.2 | 6.4 | 0.00 | 0.00 | 0.00 | 30 | 1016.6 |
| 20260502013314 | 17 | 262 | 1.6 | 6.4 | 0.00 | 0.00 | 0.00 | 33 | 1016.6 |
| 20260502012613 | 17 | 251 | 1.6 | 6.4 | 0.00 | 0.00 | 0.00 | 33 | 1016.6 |
| 20260502011912 | 17 | 268 | 1.6 | 6.4 | 0.00 | 0.00 | 0.00 | 33 | 1016.6 |
| 20260502011211 | 16 | 287 | 3.2 | 8.0 | 0.00 | 0.00 | 0.00 | 33 | 1016.9 |
| 20260502010510 | 16 | 281 | 4.8 | 9.7 | 0.00 | 0.00 | 0.00 | 35 | 1017.0 |
| 20260502005809 | 16 | 267 | 6.4 | 8.0 | 0.00 | 0.00 | 0.00 | 36 | 1016.9 |
| 20260502005108 | 16 | 271 | 4.8 | 9.7 | 0.00 | 0.00 | 0.00 | 48 | 1016.8 |
| 20260502004407 | 16 | 288 | 6.4 | 9.7 | 0.00 | 0.00 | 0.00 | 43 | 1016.9 |
| 20260502003706 | 16 | 300 | 6.4 | 11.3 | 0.00 | 0.00 | 0.00 | 45 | 1016.9 |
| 20260502003005 | 16 | 318 | 4.8 | 11.3 | 0.00 | 0.00 | 0.00 | 48 | 1016.8 |
| 20260502002306 | 16 | 291 | 6.4 | 11.3 | 0.00 | 0.00 | 0.00 | 46 | 1017.0 |
| 20260502001604 | 16 | 307 | 6.4 | 11.3 | 0.00 | 0.00 | 0.00 | 46 | 1017.1 |
| 20260502000902 | 16 | 285 | 4.8 | 11.3 | 0.00 | 0.00 | 0.00 | 44 | 1017.1 |
| 20260502000203 | 16 | 294 | 6.4 | 11.3 | 0.00 | 0.00 | 0.00 | 42 | 1017.2 |
| 20260501235500 | 16 | 286 | 3.2 | 14.5 | 0.00 | 0.00 | 0.00 | 40 | 1017.1 |
| 20260501234759 | 16 | 312 | 8.0 | 14.5 | 0.00 | 0.00 | 0.00 | 40 | 1017.4 |
| 20260501234059 | 16 | 323 | 3.2 | 14.5 | 0.00 | 0.00 | 0.00 | 45 | 1017.4 |
| 20260501233357 | 16 | 306 | 8.0 | 14.5 | 0.00 | 0.00 | 0.00 | 42 | 1017.4 |
| 20260501232656 | 16 | 9 | 6.4 | 14.5 | 0.00 | 0.00 | 0.00 | 42 | 1017.5 |
| 20260501231955 | 16 | 300 | 6.4 | 12.9 | 0.00 | 0.00 | 0.00 | 48 | 1017.5 |
| 20260501231254 | 16 | 301 | 6.4 | 9.7 | 0.00 | 0.00 | 0.00 | 45 | 1017.6 |
| 20260501230554 | 15 | 323 | 4.8 | 11.3 | 0.00 | 0.00 | 0.00 | 44 | 1017.0 |
| 20260501225852 | 15 | 287 | 6.4 | 9.7 | 0.00 | 0.00 | 0.00 | 43 | 1017.0 |
| 20260501225151 | 15 | 300 | 3.2 | 11.3 | 0.00 | 0.00 | 0.00 | 45 | 1017.2 |
| 20260501224450 | 15 | 289 | 8.0 | 16.1 | 0.00 | 0.00 | 0.00 | 44 | 1017.6 |
| 20260501223048 | 15 | 290 | 8.0 | 14.5 | 0.00 | 0.00 | 0.00 | 43 | 1017.7 |
| 20260501222347 | 15 | 294 | 8.0 | 14.5 | 0.00 | 0.00 | 0.00 | 43 | 1017.7 |
| 20260501221647 | 15 | 305 | 6.4 | 16.1 | 0.00 | 0.00 | 0.00 | 43 | 1018.1 |
| 20260501220945 | 15 | 287 | 9.7 | 14.5 | 0.00 | 0.00 | 0.00 | 41 | 1018.3 |
| 20260501220244 | 15 | 285 | 9.7 | 16.1 | 0.00 | 0.00 | 0.00 | 40 | 1018.2 |
| 20260501215543 | 15 | 288 | 9.7 | 16.1 | 0.00 | 0.00 | 0.00 | 39 | 1018.3 |
| 20260501214141 | 15 | 290 | 8.0 | 14.5 | 0.00 | 0.00 | 0.00 | 37 | 1018.2 |
| 20260501213440 | 15 | 279 | 8.0 | 11.3 | 0.00 | 0.00 | 0.00 | 40 | 1018.2 |
| 20260501212739 | 15 | 289 | 8.0 | 11.3 | 0.00 | 0.00 | 0.00 | 38 | 1018.2 |
| 20260501212038 | 15 | 281 | 8.0 | 11.3 | 0.00 | 0.00 | 0.00 | 38 | 1018.4 |
| 20260501211338 | 15 | 282 | 8.0 | 11.3 | 0.00 | 0.00 | 0.00 | 37 | 1018.3 |
| 20260501210638 | 15 | 269 | 6.4 | 11.3 | 0.00 | 0.00 | 0.00 | 38 | 1018.3 |
| 20260501205234 | 15 | 272 | 8.0 | 11.3 | 0.00 | 0.00 | 0.00 | 37 | 1018.5 |
| 20260501204533 | 15 | 290 | 8.0 | 17.7 | 0.00 | 0.00 | 0.00 | 38 | 1018.6 |
| 20260501203832 | 14 | 285 | 8.0 | 17.7 | 0.00 | 0.00 | 0.00 | 36 | 1019.0 |
| 20260501203131 | 14 | 293 | 12.9 | 19.3 | 0.00 | 0.00 | 0.00 | 40 | 1018.8 |
| 20260501202431 | 13 | 291 | 12.9 | 17.7 | 0.00 | 0.00 | 0.00 | 44 | 1019.0 |
| 20260501201729 | 13 | 297 | 14.5 | 19.3 | 0.00 | 0.00 | 0.00 | 47 | 1018.7 |
| 20260501201028 | 13 | 294 | 14.5 | 19.3 | 0.00 | 0.00 | 0.00 | 47 | 1018.7 |
| 20260501200328 | 13 | 292 | 16.1 | 19.3 | 0.00 | 0.00 | 0.00 | 47 | 1018.8 |
| 20260501195626 | 13 | 290 | 12.9 | 20.9 | 0.00 | 0.00 | 0.00 | 46 | 1018.8 |
| 20260501194925 | 13 | 294 | 12.9 | 20.9 | 0.00 | 0.00 | 0.00 | 48 | 1018.3 |
| 20260501194224 | 13 | 292 | 14.5 | 20.9 | 0.00 | 0.00 | 0.00 | 50 | 1018.3 |
| 20260501193526 | 13 | 298 | 9.7 | 16.1 | 0.00 | 0.00 | 0.00 | 49 | 1018.4 |
| 20260501192822 | 13 | 303 | 9.7 | 17.7 | 0.00 | 0.00 | 0.00 | 49 | 1018.5 |
| 20260501192123 | 13 | 308 | 8.0 | 16.1 | 0.00 | 0.00 | 0.00 | 48 | 1018.4 |
| 20260501191420 | 13 | 297 | 9.7 | 16.1 | 0.00 | 0.00 | 0.00 | 51 | 1018.5 |
| 20260501190719 | 13 | 289 | 9.7 | 16.1 | 0.00 | 0.00 | 0.00 | 48 | 1018.5 |